TimeCST,TemperatureF,Dew PointF,Humidity,Sea Level PressureIn,VisibilityMPH,Wind Direction,Wind SpeedMPH,Gust SpeedMPH,PrecipitationIn,Events,Conditions,WindDirDegrees,DateUTC
12:10 AM,24.3,22.1,91,30.02,10.0,South,5.8,-,N/A,,Overcast,170,2012-12-12 06:10:00
12:30 AM,24.6,22.3,91,30.02,10.0,SSE,5.8,-,N/A,,Overcast,160,2012-12-12 06:30:00
12:50 AM,24.6,22.3,91,30.01,10.0,SE,4.6,-,N/A,,Overcast,140,2012-12-12 06:50:00
1:10 AM,24.6,22.5,91,30.00,10.0,SE,4.6,-,N/A,,Overcast,140,2012-12-12 07:10:00
1:50 AM,22.1,20.3,93,30.01,10.0,SSE,5.8,-,N/A,,Clear,160,2012-12-12 07:50:00
2:10 AM,21.7,20.3,94,30.01,7.0,SSE,5.8,-,N/A,,Clear,150,2012-12-12 08:10:00
2:30 AM,21.2,19.9,95,30.01,7.0,SE,5.8,-,N/A,,Clear,140,2012-12-12 08:30:00
2:50 AM,21.6,20.3,95,30.01,7.0,SSE,6.9,-,N/A,,Clear,150,2012-12-12 08:50:00
3:09 AM,21.6,20.3,95,30.01,10.0,SSE,5.8,-,N/A,,Clear,150,2012-12-12 09:09:00
3:49 AM,19.9,18.7,95,30.00,7.0,SSE,8.1,-,N/A,,Clear,160,2012-12-12 09:49:00
4:10 AM,21.6,20.3,95,30.00,10.0,SSE,9.2,-,N/A,,Clear,160,2012-12-12 10:10:00
4:30 AM,20.3,19.0,95,30.00,10.0,South,8.1,-,N/A,,Clear,170,2012-12-12 10:30:00
4:49 AM,21.4,20.1,95,30.00,10.0,South,8.1,-,N/A,,Clear,170,2012-12-12 10:49:00
5:10 AM,21.2,19.4,93,30.00,10.0,South,9.2,-,N/A,,Clear,180,2012-12-12 11:10:00
5:50 AM,21.2,18.9,91,30.00,10.0,South,12.7,-,N/A,,Clear,180,2012-12-12 11:50:00
6:10 AM,22.3,19.4,89,30.00,10.0,South,11.5,-,N/A,,Clear,180,2012-12-12 12:10:00
6:30 AM,23.0,19.4,86,30.00,10.0,South,9.2,-,N/A,,Clear,180,2012-12-12 12:30:00
6:50 AM,24.1,20.1,85,30.00,10.0,South,10.4,-,N/A,,Scattered Clouds,180,2012-12-12 12:50:00
7:10 AM,24.6,20.1,83,30.00,10.0,South,11.5,-,N/A,,Clear,190,2012-12-12 13:10:00
7:30 AM,25.7,20.3,80,30.00,10.0,South,15.0,-,N/A,,Scattered Clouds,190,2012-12-12 13:30:00
7:46 AM,26.2,20.3,78,29.99,10.0,SSW,13.8,-,N/A,,Mostly Cloudy,200,2012-12-12 13:46:00
8:10 AM,26.8,21.0,79,30.00,10.0,South,11.5,-,N/A,,Scattered Clouds,190,2012-12-12 14:10:00
8:30 AM,27.3,21.2,78,30.00,10.0,South,16.1,-,N/A,,Mostly Cloudy,190,2012-12-12 14:30:00
8:50 AM,28.0,21.6,77,30.00,10.0,South,13.8,-,N/A,,Overcast,190,2012-12-12 14:50:00
9:10 AM,29.3,21.9,74,30.01,10.0,South,17.3,-,N/A,,Overcast,190,2012-12-12 15:10:00
9:30 AM,30.6,22.1,71,30.01,10.0,South,16.1,25.3,N/A,,Overcast,190,2012-12-12 15:30:00
9:50 AM,31.8,22.1,67,30.01,10.0,South,18.4,26.5,N/A,,Overcast,190,2012-12-12 15:50:00
10:10 AM,32.0,22.6,68,30.01,10.0,SSW,18.4,24.2,N/A,,Overcast,200,2012-12-12 16:10:00
11:10 AM,33.8,23.9,67,29.99,10.0,SSW,20.7,27.6,N/A,,Mostly Cloudy,200,2012-12-12 17:10:00
11:30 AM,34.2,24.3,67,29.98,10.0,South,23.0,-,N/A,,Scattered Clouds,190,2012-12-12 17:30:00
11:50 AM,34.7,24.6,67,29.97,10.0,South,19.6,25.3,N/A,,Clear,190,2012-12-12 17:50:00
12:10 PM,35.6,25.0,65,29.96,10.0,South,19.6,27.6,N/A,,Clear,190,2012-12-12 18:10:00
12:50 PM,36.5,26.4,67,29.95,10.0,South,16.1,23.0,N/A,,Clear,180,2012-12-12 18:50:00
1:10 PM,36.7,27.0,68,29.95,10.0,South,15.0,-,N/A,,Clear,180,2012-12-12 19:10:00
1:29 PM,37.4,27.0,66,29.94,10.0,South,15.0,-,N/A,,Clear,190,2012-12-12 19:29:00
1:50 PM,37.8,27.0,65,29.94,10.0,South,13.8,20.7,N/A,,Clear,180,2012-12-12 19:50:00
2:10 PM,38.5,26.8,63,29.94,10.0,South,19.6,27.6,N/A,,Clear,190,2012-12-12 20:10:00
2:30 PM,39.0,26.6,61,29.93,10.0,South,21.9,28.8,N/A,,Clear,180,2012-12-12 20:30:00
2:50 PM,39.6,26.6,60,29.93,10.0,South,24.2,27.6,N/A,,Clear,190,2012-12-12 20:50:00
3:10 PM,39.7,26.6,59,29.93,10.0,South,21.9,28.8,N/A,,Clear,190,2012-12-12 21:10:00
3:30 PM,39.6,26.6,60,29.93,10.0,South,19.6,25.3,N/A,,Clear,190,2012-12-12 21:30:00
3:50 PM,40.1,26.1,57,29.94,10.0,South,18.4,24.2,N/A,,Clear,190,2012-12-12 21:50:00
4:10 PM,39.4,26.4,60,29.94,10.0,South,17.3,25.3,N/A,,Clear,190,2012-12-12 22:10:00
4:30 PM,38.8,26.2,61,29.93,10.0,South,18.4,-,N/A,,Clear,190,2012-12-12 22:30:00
4:50 PM,38.3,26.4,62,29.94,10.0,South,18.4,23.0,N/A,,Clear,190,2012-12-12 22:50:00
5:10 PM,37.9,26.4,63,29.94,10.0,South,17.3,21.9,N/A,,Clear,190,2012-12-12 23:10:00
5:30 PM,37.4,26.1,64,29.94,10.0,South,20.7,24.2,N/A,,Clear,190,2012-12-12 23:30:00
5:49 PM,37.6,25.3,61,29.94,10.0,South,19.6,26.5,N/A,,Clear,190,2012-12-12 23:49:00
6:50 PM,36.7,24.6,62,29.96,10.0,SSW,20.7,26.5,N/A,,Clear,200,2012-12-13 00:50:00
7:10 PM,36.9,24.6,61,29.96,10.0,South,21.9,-,N/A,,Clear,190,2012-12-13 01:10:00
7:50 PM,36.7,23.7,59,29.97,10.0,South,21.9,27.6,N/A,,Clear,190,2012-12-13 01:50:00
8:09 PM,36.0,23.0,59,29.98,10.0,SSW,20.7,28.8,N/A,,Clear,200,2012-12-13 02:09:00
8:50 PM,35.1,22.5,60,29.99,10.0,South,18.4,26.5,N/A,,Clear,190,2012-12-13 02:50:00
9:10 PM,34.7,22.3,61,29.99,10.0,South,18.4,24.2,N/A,,Clear,190,2012-12-13 03:10:00
9:30 PM,34.3,21.9,60,30.00,10.0,South,17.3,25.3,N/A,,Clear,190,2012-12-13 03:30:00
9:50 PM,33.8,21.7,61,30.01,10.0,SSW,16.1,21.9,N/A,,Clear,200,2012-12-13 03:50:00
10:10 PM,33.1,21.4,62,30.01,10.0,SSW,16.1,-,N/A,,Clear,200,2012-12-13 04:10:00
10:50 PM,33.3,20.5,59,30.02,10.0,SSW,17.3,21.9,N/A,,Clear,200,2012-12-13 04:50:00
11:10 PM,32.9,20.3,60,30.02,10.0,SSW,16.1,24.2,N/A,,Clear,200,2012-12-13 05:10:00
11:30 PM,32.5,20.3,61,30.02,10.0,South,15.0,20.7,N/A,,Clear,190,2012-12-13 05:30:00
11:50 PM,32.5,20.1,60,30.02,10.0,South,15.0,21.9,N/A,,Clear,190,2012-12-13 05:50:00